Simultaneous Nadir Overpasses (SNOs) Predictions

Prediction of SNOs between NOAA-19 and NPP Satellite Orbit:

Table of predicted SNOs for the next 14.0 days since TLE Epoch: 11/28/2014
Index Date (NOAA-19) Time (NOAA-19) Lat,Lon (NOAA-19) SZA (NOAA-19 ) Date (NPP) Time (NPP) Lat,Lon (NPP) SZA (NPP ) Distance(km) Time Diff (sec)
1 11/30/2014 12:13:37 -80.90, 128.16 74.87 11/30/2014 12:14:50 -80.89, 128.27 74.92 1.93 73
2 11/30/2014 13:04:33 80.89, -64.44 105.13 11/30/2014 13:05:35 80.89, -64.39 105.09 1.02 62
3 11/30/2014 13:55:39 -80.88, 103.09 74.91 11/30/2014 13:56:19 -80.88, 103.19 74.95 1.89 40
4 11/30/2014 14:46:35 80.88, -89.52 105.08 11/30/2014 14:47:04 80.88, -89.46 105.06 0.99 29
5 11/30/2014 15:37:41 -80.87, 78.02 74.96 11/30/2014 15:37:48 -80.86, 78.11 74.98 1.87 7
6 11/30/2014</
